INTELSAT 34 (IS-34) (40874 NORAD) Tracking and Keplerian Element Data

This shows tracking and keplerian element data for the satellite.

Feedback or suggestion? Click here.




ElementValue
Catalog40874
NameINTELSAT 34 (IS-34)
Epoch Orbit1070
Epoch Day200.32900218
Epoch Year2018
RAAN52.4142
Inclination0.02
Eccentricity3.34E-05
Argument of Perigee337.7235
Mean Anonmoly329.8642
Mean Motion1.00270908
Decay Rate-3.04E-06
L11 40874U 15039A 18200.32900218 -.00000304 00000-0 00000+0 0 9994
L22 40874 0.0200 52.4142 0000334 337.7235 329.8642 1.00270908 10704

Live tracking and technical data element details for INTELSAT 34 (IS-34) (NORAD 40874). INTELSAT 34 (IS-34) can be tracked NOW for your location showing map with azimuth and elevation plus other details from your city location.

Track the satellite on the map from your city or location and see movement details for azimuth, elevation, latitude, longitude, range, height, and movement on the map or in text.







IsCatalogInMostPopularTable: catalog: 40874, numindb: 76
Update: records affected: 1



GetName: 40874 INTELSAT 34 (IS-34)

Hit Count: updated at: Sat, 21 Jul 2018 07:48:51 GMT